Tracking 28238 objects as of 28-Nov-2023
HD Live streaming from Space Station
objects crossing your sky now

SSC

Track SSC now!
10-day predictions
SSC is classified as:


NORAD ID: 13874
Int'l Code: 1983-008H
Perigee: 406.2 km
Apogee: 1,620.9 km
Inclination: 63.3 °
Period: 105.3 minutes
Semi major axis: 7384 km
RCS: Unknown
Launch date: February 9, 1983
Source: United States (US)
Launch site: AIR FORCE WESTERN TEST RANGE (AFWTR)
Your satellite tracking list
Your tracking list is empty




NASA's NSSDC Master Catalog

Two Line Element Set (TLE):
1 13874U 83008H   23332.53829842  .00006835  00000-0  62270-3 0  9998
2 13874  63.2995  40.8679 0822431 119.1434 249.4456 13.68100298223487
Source of the keplerian elements: McCants